This is the latest recevied weather packets stored in our database for station/object AD8BV. If no packets are shown the sender has not sent any weather packets the latest 10 day(s).
| Time | Temp. | Humidity | Pressure | Rain* | Wind** | Luminosity | Snow |
|---|---|---|---|---|---|---|---|
| 1778101563 | 12.22° C | 46% | 1013.8 hPa | 0 mm | - | 176 W/m² | - |
| 1778101259 | 12.78° C | 46% | 1013.8 hPa | 0 mm | - | 153 W/m² | - |
| 1778100956 | 12.78° C | 47% | 1013.8 hPa | 0 mm | - | 296 W/m² | - |
| 1778100651 | 12.78° C | 44% | 1013.6 hPa | 0 mm | - | 139 W/m² | - |
| 1778100349 | 12.22° C | 46% | 1013.7 hPa | 0 mm | - | 514 W/m² | - |
| 1778100046 | 12.22° C | 44% | 1013.9 hPa | 0 mm | - | 153 W/m² | - |
| 1778099744 | 12.78° C | 44% | 1013.7 hPa | 0 mm | - | 171 W/m² | - |
| 1778099440 | 12.78° C | 45% | 1013.9 hPa | 0 mm | - | 210 W/m² | - |
| 1778099138 | 12.22° C | 45% | 1013.9 hPa | 0 mm | - | 207 W/m² | - |
| 1778098834 | 12.22° C | 46% | 1013.9 hPa | 0 mm | - | 219 W/m² | - |
| 1778098532 | 12.22° C | 48% | 1014 hPa | 0 mm | - | 243 W/m² | - |
| 1778098228 | 12.22° C | 47% | 1013.8 hPa | 0 mm | - | 171 W/m² | - |
| 1778097925 | 12.22° C | 49% | 1014.1 hPa | 0 mm | - | 165 W/m² | - |
| 1778097621 | 12.22° C | 44% | 1014.1 hPa | 0 mm | - | 206 W/m² | - |
| 1778097318 | 12.22° C | 43% | 1014 hPa | 0 mm | - | 233 W/m² | - |
| 1778097015 | 12.22° C | 47% | 1014 hPa | 0 mm | - | 277 W/m² | - |
| 1778096712 | 12.22° C | 44% | 1013.9 hPa | 0 mm | - | 235 W/m² | - |
| 1778096409 | 12.22° C | 46% | 1014 hPa | 0 mm | - | 234 W/m² | - |
| 1778096106 | 12.22° C | 44% | 1014.1 hPa | 0 mm | - | 285 W/m² | - |
| 1778095803 | 12.78° C | 43% | 1014.2 hPa | 0 mm | - | 209 W/m² | - |
| 1778095500 | 12.78° C | 46% | 1014.1 hPa | 0 mm | - | 304 W/m² | - |
| 1778095195 | 12.78° C | 44% | 1014.1 hPa | 0 mm | - | 232 W/m² | - |
| 1778094893 | 12.78° C | 47% | 1014.5 hPa | 0 mm | - | 325 W/m² | - |
| 1778094589 | 12.22° C | 45% | 1014.4 hPa | 0 mm | - | 242 W/m² | - |
| 1778094286 | 12.78° C | 48% | 1014.2 hPa | 0 mm | - | 283 W/m² | - |
* Rain latest hour (hover to see other rain measurements)
** Current wind speed in m/s (hover to see current wind gust speed)